SCP
0 0 0 0 0 0 0 0 0 0 0 0 0 0 0 0 0 0 0 0 0 0 0 0 0 0 0 0 0 0 0 0 0 0 0 0 0 0 0 0 0 0 0
0 0 0 0 0 0 0 0 0 0 0 0 0 0 0 0 0 0 0 0 0 0 0 0 0 0 0 0 0 0 0 0 0 0 0 0 0 0 0 0 0 0 0
0 0 0 0 0 0 0 0 0 0 0 0 0 0 0 0 0 0 0 0 0 0 0 0 0 0 0 0 0 0 0 0 0 0 0 0 0 0 0 0 0 0 0
0 0 0 0 0 0 0 0 0 0 0 0 0 0 0 0 0 0 0 0 0 0 0 0 0 0 0 0 0 0 0 0 0 0 0 0 0 0 0 -0 -0 -0 -0
0 0 0 0 0 0 0 0 0 0 0 0 0 0 0 0 0 0 0 0 0 0 0 0 0 0 0 0 0 0 0 0 0 0 0 0 0 -0 -0 -0 -0 -0 -0
0 0 0 0 0 0 0 0 0 0 0 0 0 0 0 0 0 0 0 0 0 0 0 0 0 0 0 0 0 0 0 0 0 0 0 0 0 0 0 0 0 0 -0
0 0 0 0 0 0 0 0 0 0 0 0 0 0 0 0 0 0 0 0 0 0 0 0 0 0 0 0 0 0 0 0 0 0 0 0 0 0 0 0 0 0 0
0 0 0 0 0 0 0 0 0 0 0 0 0 0 0 0 0 0 0 0 0 0 0 0 0 0 0 0 0 0 0 0 0 0 0 0 0 0 0 0 0 0 0
0 0 0 0 0 0 0 0 0 0 0 0 0 0 0 0 0 0 0 0 0 0 0 0 0 0 0 0 0 0 0 0 0 0 0 0 0 0 0 0 0 0 0
0 0 0 0 0 0 0 0 0 0 0 0 0 0 0 0 0 0 0 0 0 0 0 0 0 0 0 0 0 0 0 0 0 0 0 0 0 0 0 0 0 0 0
0 0 0 0 0 0 0 0 0 0 0 0 0 0 0 0 0 0 0 0 0 0 0 0 0 0 0 0 0 0 0 0 0 0 0 0 0 0 0 0 0 0 0
0 0 0 0 0 0 0 0 0 0 0 0 0 0 0 0 0 0 0 0 0 0 0 0 0 0 0 0 0 0 0 0 0 0 0 0 0 0 0 0 0 0 0
0 0 0 0 0 0 0 0 0 0 0 0 0 0 0 0 0 0 0 0 0 0 0 0 0 0 0 0 0 0 0 0 0 0 0 0 0 0 0 0 0 0 0
0 0 0 0 0 0 0 0 0 0 0 0 0 0 0 0 0 0 0 0 0 0 0 0 0 0 0 0 0 0 0 0 0 0 0 0 0 0 0 0 0 0 0
0 0 0 0 0 0 0 0 0 0 0 0 0 0 0 0 0 0 0 0 0 0 0 0 0 0 0 0 0 0 0 0 0 0 0 0 0 0 0 0 0 0 0
0 0 0 0 0 0 0 0 0 0 0 0 0 0 0 0 0 0 0 0 0 0 0 0 0 0 0 0 0 0 0 0 0 0 0 0 0 0 0 0 0 0 0
0 0 0 0 0 0 0 0 0 0 0 0 0 0 0 0 0 0 0 0 0 0 0 0 0 0 0 0 0 0 0 0 0 0 0 0 0 0 0 0 0 0 0
0 0 0 0 0 0 0 0 0 0 0 0 0 0 0 0 0 0 0 0 0 0 0 0 0 0 0 0 0 0 0 0 0 0 0 0 0 0 0 0 0 0 0
0 0 0 0 0 0 0 0 0 0 0 0 0 0 0 0 0 0 0 0 0 0 0 0 0 0 0 0 0 0 0 0 0 0 0 0 0 0 0 0 0 0 0
0 0 0 0 0 0 0 0 0 0 0 0 0 0 0 0 0 0 0 0 0 0 0 0 0 0 0 0 0 0 0 0 0 0 0 0 0 0 0 0 0 0 0
0 0 0 0 0 0 0 0 0 0 0 0 0 0 0 0 0 0 0 0 0 0 0 0 0 0 0 0 0 0 0 0 0 0 0 0 0 0 0 0 0 0 0
0 0 0 0 0 0 0 0 0 0 0 0 0 0 0 0 0 0 0 0 0 0 0 0 0 0 0 0 0 0 0 0 0 0 0 0 0 0 0 0 0 0 0
0 0 0 0 0 0 0 0 0 0 0 0 0 0 0 0 0 0 0 0 0 0 0 0 0 0 0 0 0 0 0 0 0 0 0 0 0 0 0 0 0 0 0
0 0 0 0 0 0 0 0 0 0 0 0 0 0 0 0 0 0 0 0 0 0 0 0 0 0 0 0 0 0 0 0 0 0 0 0 0 0 0 0 0 0 0
0 0 0 0 0 0 0 0 0 0 0 0 0 0 0 0 0 0 0 0 0 0 0 0 0 0 0 0 0 0 0 0 0 0 0 0 0 0 0 0 0 0 0
0 0 0 0 0 0 0 0 0 0 0 0 0 0 0 0 0 0 0 0 0 0 0 0 0 0 0 0 0 0 0 0 0 0 0 0 0 0 0 0 0 0 0
Wind_Speed_500mb
27 28 27 25 26 33 39 41 48 50 52 46 49 47 41 52 47 39 45 46 49 44 52 41 39 38 45 45 44 43 42 44 57 67 65 66 65 68 71 71 73 73 74
28 29 28 28 24 24 30 37 40 42 45 47 49 44 42 34 39 46 53 39 39 41 40 38 38 32 29 31 34 36 40 43 52 70 74 73 76 72 74 74 72 72 74
29 28 28 27 25 25 27 30 33 39 39 39 36 38 40 41 39 38 37 36 32 31 29 26 25 26 28 30 34 39 44 48 53 64 77 80 79 74 76 74 76 78 78
29 29 28 26 26 29 30 30 34 35 37 39 40 39 36 34 31 28 24 24 24 23 22 25 27 28 29 33 41 46 50 55 60 64 69 74 76 77 77 84 90 87 86
30 30 29 26 25 26 28 30 32 32 32 30 30 28 27 26 23 21 19 17 16 17 19 23 27 32 39 41 43 48 51 54 56 61 65 69 74 78 79 82 89 93 91
28 29 29 27 28 30 32 32 32 32 32 31 29 27 24 22 19 16 12 12 14 16 18 22 26 30 35 37 40 43 48 52 54 56 60 66 70 73 75 78 84 90 90
32 31 31 31 31 33 33 34 34 32 31 28 26 23 20 17 14 10 9 11 12 15 19 23 28 36 36 37 38 41 44 48 51 55 60 62 67 66 68 74 77 80 81
34 35 34 34 34 35 35 34 33 32 30 27 24 21 17 12 5 4 10 14 22 33 38 41 34 29 34 39 43 47 47 47 48 51 55 59 59 59 58 60 68 76 83
37 36 36 37 37 38 37 36 34 32 29 26 23 19 12 1 5 12 17 20 25 28 30 27 26 29 33 39 45 48 51 51 53 54 55 54 54 55 55 55 63 73 92
37 37 38 39 40 38 37 36 34 30 26 24 18 12 4 10 10 12 17 25 30 25 22 23 25 28 33 38 46 53 59 63 69 69 63 59 57 57 51 49 57 61 76
37 38 39 40 40 39 38 37 34 31 27 20 11 7 2 8 17 21 28 26 21 19 19 18 24 31 37 42 46 48 53 61 61 62 63 60 59 54 53 50 49 53 64
38 39 40 40 39 36 34 34 33 26 20 15 9 9 16 19 24 33 30 23 21 18 19 23 29 35 39 43 46 49 52 55 58 58 59 60 63 65 62 56 51 49 52
39 41 41 42 43 42 40 32 24 19 15 13 18 19 24 33 30 28 23 19 18 20 25 31 34 38 40 42 45 49 52 54 56 56 57 58 59 62 62 59 53 57 57
41 44 46 47 47 45 40 33 27 23 22 28 22 24 33 29 25 23 19 16 18 23 27 30 34 37 40 43 43 45 47 49 51 53 55 56 58 58 58 55 54 55 60
45 47 49 50 49 45 37 32 29 35 29 21 26 37 32 30 28 27 22 21 23 27 31 32 33 38 42 45 46 47 49 50 51 52 55 59 61 62 61 56 51 51 52
50 53 53 55 52 46 40 39 36 28 27 36 41 40 37 35 30 26 22 23 24 27 30 36 40 43 46 48 49 48 48 50 50 51 51 53 58 61 62 58 51 49 53
53 55 59 60 57 50 46 39 34 37 47 47 46 40 38 33 26 20 20 20 23 28 32 37 40 42 43 45 47 47 48 44 45 45 46 47 50 52 55 56 56 54 54
57 62 63 62 55 48 44 41 48 50 47 42 39 34 36 29 25 20 19 22 24 27 30 35 38 41 43 43 43 44 43 44 44 44 44 44 47 51 54 55 54 57 57
65 67 68 65 56 51 46 47 50 53 51 45 42 37 37 33 26 21 21 23 24 26 31 35 37 39 40 42 44 43 44 44 44 44 44 45 46 50 51 51 53 53 56
71 70 71 64 60 54 47 51 57 56 51 47 43 40 40 36 31 26 24 25 25 26 29 32 36 40 41 43 42 41 38 38 40 41 42 43 44 47 50 51 52 56 56
74 73 67 64 57 47 52 59 60 56 53 49 44 43 42 38 34 31 29 25 26 29 31 33 37 38 39 40 41 40 38 38 41 42 43 43 43 45 47 49 51 51 54
79 73 70 66 56 52 56 61 58 56 52 50 48 47 48 39 37 34 32 30 30 31 34 36 37 38 40 41 43 44 43 42 43 45 46 45 44 44 46 48 50 52 53
78 75 71 61 53 58 65 64 64 60 56 52 53 52 49 43 40 36 34 34 33 35 40 41 40 38 41 43 48 53 54 52 51 51 51 51 49 47 46 47 49 51 52
78 76 76 69 68 74 71 65 63 60 59 58 57 53 52 48 44 41 39 38 37 38 43 45 45 44 42 45 50 54 57 56 53 51 52 53 53 51 49 49 47 47 48
84 87 84 74 75 76 66 69 65 62 61 60 56 56 54 51 48 45 45 45 43 43 44 46 48 49 51 52 53 55 56 54 53 51 51 53 53 51 50 50 49 47 45
86 85 82 80 78 71 72 68 65 63 63 58 57 57 55 53 51 49 49 50 48 48 46 47 50 54 55 56 55 56 55 54 53 52 53 54 52 50 48 47 45 44 44
Wind_Direction_500mb
271 272 275 272 258 250 247 240 244 248 250 257 259 258 251 257 255 250 263 257 275 265 266 266 262 259 275 278 278 279 280 281 284 293 296 303 307 309 306 304 304 304 304
280 283 279 269 262 252 243 237 241 242 253 252 253 252 245 256 263 259 260 249 260 260 259 262 268 273 277 280 284 290 292 292 293 300 304 310 310 310 307 307 307 305 305
275 271 267 258 241 233 233 238 246 249 246 238 252 245 259 258 254 248 254 253 251 259 260 262 268 275 283 292 297 300 299 301 301 303 306 306 307 310 312 312 313 313 314
273 270 267 259 241 233 237 239 238 238 238 244 247 248 248 248 249 247 251 252 251 256 268 280 286 291 296 300 300 301 305 308 306 302 303 310 315 320 322 323 322 323 321
269 266 264 254 244 235 233 233 232 229 233 233 234 234 233 231 229 230 237 252 267 280 287 292 296 300 303 305 311 311 309 307 310 311 312 314 320 326 327 325 321 321 322
266 262 263 257 248 235 230 228 227 225 224 220 216 214 214 216 222 228 240 261 280 291 300 303 300 308 310 313 312 315 317 317 316 315 318 320 322 323 323 323 320 323 320
261 257 250 244 237 229 223 218 214 211 209 207 207 208 211 212 217 230 264 291 303 312 314 323 323 314 311 313 317 319 319 321 320 319 317 320 320 324 322 322 321 317 312
254 247 241 236 230 225 220 216 214 212 212 211 208 207 206 204 216 312 327 337 338 332 322 302 298 313 315 318 321 324 322 320 317 316 316 319 321 322 317 315 312 310 310
245 241 236 232 228 224 220 218 216 215 212 207 199 195 185 163 14 340 329 335 320 312 301 304 310 314 316 320 321 317 319 322 318 317 317 318 318 318 315 310 313 314 314
247 242 237 232 227 224 222 218 213 206 204 195 187 179 271 309 323 323 328 324 295 286 291 302 309 315 322 325 330 331 327 324 323 323 320 318 317 315 319 321 316 314 310
247 241 237 232 227 223 218 210 206 199 195 196 220 240 316 329 321 319 283 276 282 289 298 311 322 328 333 333 330 327 322 322 323 320 319 317 319 322 320 318 314 310 311
241 238 232 227 219 211 206 199 193 200 209 204 206 264 291 313 286 267 270 275 287 303 319 329 333 333 333 331 328 326 325 324 323 322 321 321 320 320 320 320 323 318 316
239 232 226 220 213 205 199 201 208 216 220 246 281 286 281 255 260 266 277 293 309 323 330 330 330 328 330 330 328 328 327 325 324 323 324 323 323 321 320 319 318 325 324
235 229 221 214 206 202 204 209 212 208 236 266 268 255 259 264 269 279 286 299 323 328 328 327 328 331 333 331 327 325 327 328 329 327 326 324 323 321 322 325 321 323 326
232 226 218 210 206 207 213 209 241 260 259 240 245 254 254 256 261 267 283 306 320 325 329 330 326 326 329 329 332 335 334 333 333 332 329 328 328 328 331 334 329 326 325
231 222 215 210 208 215 224 248 253 238 235 243 245 246 245 248 255 269 288 304 317 324 326 325 329 331 332 333 334 337 336 334 336 334 332 332 332 333 333 336 338 336 334
229 222 214 213 219 230 240 240 224 229 244 250 249 248 247 252 258 269 284 302 319 324 325 329 330 330 332 334 334 334 335 337 338 337 335 334 332 333 336 338 340 342 338
223 219 220 222 230 239 234 226 238 246 248 249 251 251 257 258 261 271 286 301 308 318 324 327 326 328 328 327 328 330 333 334 335 336 336 338 340 342 342 343 345 344 342
223 223 226 231 235 234 226 239 248 247 248 247 248 249 255 255 258 261 274 289 302 315 319 319 320 320 322 324 327 328 327 326 326 328 332 335 339 341 344 346 346 347 346
227 229 234 239 236 229 230 240 245 248 248 247 247 248 250 253 256 262 272 284 299 307 307 308 315 319 319 318 318 320 323 322 324 329 332 335 336 337 340 343 345 347 349
233 234 239 235 229 226 237 245 249 248 248 248 248 247 249 252 257 264 273 284 294 296 301 308 309 309 308 309 312 315 319 322 323 326 330 334 337 338 340 343 345 345 345
236 238 234 228 229 232 245 252 250 249 248 246 245 246 247 248 252 259 268 277 284 291 297 300 301 302 302 304 306 309 313 315 315 317 319 324 330 333 336 341 343 344 346
241 237 233 234 237 237 241 247 247 248 248 247 247 248 251 251 252 258 266 274 283 290 292 295 296 295 296 301 303 305 307 309 309 310 311 314 317 320 325 331 336 338 342
243 238 234 234 235 240 243 247 247 246 245 245 246 247 250 251 254 259 264 269 274 280 284 287 289 290 290 293 296 299 301 303 304 305 305 306 309 313 315 318 323 328 332
240 238 236 237 237 243 244 244 244 246 246 246 246 248 249 251 255 260 264 267 271 274 277 281 285 288 292 295 296 295 295 296 298 299 299 300 303 306 309 309 313 318 322
243 240 236 241 240 240 240 241 245 247 247 247 247 248 249 252 256 259 263 268 271 274 277 279 282 286 290 292 293 292 293 294 294 294 294 295 297 299 301 302 304 308 313
Wind_Speed_850mb
27 28 27 25 26 33 39 41 48 50 52 46 49 47 41 52 47 39 45 46 49 44 52 41 39 38 45 45 44 43 42 44 57 67 65 66 65 68 71 71 73 73 74
28 29 28 28 24 24 30 37 40 42 45 47 49 44 42 34 39 46 53 39 39 41 40 38 38 32 29 31 34 36 40 43 52 70 74 73 76 72 74 74 72 72 74
29 28 28 27 25 25 27 30 33 39 39 39 36 38 40 41 39 38 37 36 32 31 29 26 25 26 28 30 34 39 44 48 53 64 77 80 79 74 76 74 76 78 78
29 29 28 26 26 29 30 30 34 35 37 39 40 39 36 34 31 28 24 24 24 23 22 25 27 28 29 33 41 46 50 55 60 64 69 74 76 77 77 84 90 87 86
30 30 29 26 25 26 28 30 32 32 32 30 30 28 27 26 23 21 19 17 16 17 19 23 27 32 39 41 43 48 51 54 56 61 65 69 74 78 79 82 89 93 91
28 29 29 27 28 30 32 32 32 32 32 31 29 27 24 22 19 16 12 12 14 16 18 22 26 30 35 37 40 43 48 52 54 56 60 66 70 73 75 78 84 90 90
32 31 31 31 31 33 33 34 34 32 31 28 26 23 20 17 14 10 9 11 12 15 19 23 28 36 36 37 38 41 44 48 51 55 60 62 67 66 68 74 77 80 81
34 35 34 34 34 35 35 34 33 32 30 27 24 21 17 12 5 4 10 14 22 33 38 41 34 29 34 39 43 47 47 47 48 51 55 59 59 59 58 60 68 76 83
37 36 36 37 37 38 37 36 34 32 29 26 23 19 12 1 5 12 17 20 25 28 30 27 26 29 33 39 45 48 51 51 53 54 55 54 54 55 55 55 63 73 92
37 37 38 39 40 38 37 36 34 30 26 24 18 12 4 10 10 12 17 25 30 25 22 23 25 28 33 38 46 53 59 63 69 69 63 59 57 57 51 49 57 61 76
37 38 39 40 40 39 38 37 34 31 27 20 11 7 2 8 17 21 28 26 21 19 19 18 24 31 37 42 46 48 53 61 61 62 63 60 59 54 53 50 49 53 64
38 39 40 40 39 36 34 34 33 26 20 15 9 9 16 19 24 33 30 23 21 18 19 23 29 35 39 43 46 49 52 55 58 58 59 60 63 65 62 56 51 49 52
39 41 41 42 43 42 40 32 24 19 15 13 18 19 24 33 30 28 23 19 18 20 25 31 34 38 40 42 45 49 52 54 56 56 57 58 59 62 62 59 53 57 57
41 44 46 47 47 45 40 33 27 23 22 28 22 24 33 29 25 23 19 16 18 23 27 30 34 37 40 43 43 45 47 49 51 53 55 56 58 58 58 55 54 55 60
45 47 49 50 49 45 37 32 29 35 29 21 26 37 32 30 28 27 22 21 23 27 31 32 33 38 42 45 46 47 49 50 51 52 55 59 61 62 61 56 51 51 52
50 53 53 55 52 46 40 39 36 28 27 36 41 40 37 35 30 26 22 23 24 27 30 36 40 43 46 48 49 48 48 50 50 51 51 53 58 61 62 58 51 49 53
53 55 59 60 57 50 46 39 34 37 47 47 46 40 38 33 26 20 20 20 23 28 32 37 40 42 43 45 47 47 48 44 45 45 46 47 50 52 55 56 56 54 54
57 62 63 62 55 48 44 41 48 50 47 42 39 34 36 29 25 20 19 22 24 27 30 35 38 41 43 43 43 44 43 44 44 44 44 44 47 51 54 55 54 57 57
65 67 68 65 56 51 46 47 50 53 51 45 42 37 37 33 26 21 21 23 24 26 31 35 37 39 40 42 44 43 44 44 44 44 44 45 46 50 51 51 53 53 56
71 70 71 64 60 54 47 51 57 56 51 47 43 40 40 36 31 26 24 25 25 26 29 32 36 40 41 43 42 41 38 38 40 41 42 43 44 47 50 51 52 56 56
74 73 67 64 57 47 52 59 60 56 53 49 44 43 42 38 34 31 29 25 26 29 31 33 37 38 39 40 41 40 38 38 41 42 43 43 43 45 47 49 51 51 54
79 73 70 66 56 52 56 61 58 56 52 50 48 47 48 39 37 34 32 30 30 31 34 36 37 38 40 41 43 44 43 42 43 45 46 45 44 44 46 48 50 52 53
78 75 71 61 53 58 65 64 64 60 56 52 53 52 49 43 40 36 34 34 33 35 40 41 40 38 41 43 48 53 54 52 51 51 51 51 49 47 46 47 49 51 52
78 76 76 69 68 74 71 65 63 60 59 58 57 53 52 48 44 41 39 38 37 38 43 45 45 44 42 45 50 54 57 56 53 51 52 53 53 51 49 49 47 47 48
84 87 84 74 75 76 66 69 65 62 61 60 56 56 54 51 48 45 45 45 43 43 44 46 48 49 51 52 53 55 56 54 53 51 51 53 53 51 50 50 49 47 45
86 85 82 80 78 71 72 68 65 63 63 58 57 57 55 53 51 49 49 50 48 48 46 47 50 54 55 56 55 56 55 54 53 52 53 54 52 50 48 47 45 44 44
Wind_Direction_850mb
271 272 275 272 258 250 247 240 244 248 250 257 259 258 251 257 255 250 263 257 275 265 266 266 262 259 275 278 278 279 280 281 284 293 296 303 307 309 306 304 304 304 304
280 283 279 269 262 252 243 237 241 242 253 252 253 252 245 256 263 259 260 249 260 260 259 262 268 273 277 280 284 290 292 292 293 300 304 310 310 310 307 307 307 305 305
275 271 267 258 241 233 233 238 246 249 246 238 252 245 259 258 254 248 254 253 251 259 260 262 268 275 283 292 297 300 299 301 301 303 306 306 307 310 312 312 313 313 314
273 270 267 259 241 233 237 239 238 238 238 244 247 248 248 248 249 247 251 252 251 256 268 280 286 291 296 300 300 301 305 308 306 302 303 310 315 320 322 323 322 323 321
269 266 264 254 244 235 233 233 232 229 233 233 234 234 233 231 229 230 237 252 267 280 287 292 296 300 303 305 311 311 309 307 310 311 312 314 320 326 327 325 321 321 322
266 262 263 257 248 235 230 228 227 225 224 220 216 214 214 216 222 228 240 261 280 291 300 303 300 308 310 313 312 315 317 317 316 315 318 320 322 323 323 323 320 323 320
261 257 250 244 237 229 223 218 214 211 209 207 207 208 211 212 217 230 264 291 303 312 314 323 323 314 311 313 317 319 319 321 320 319 317 320 320 324 322 322 321 317 312
254 247 241 236 230 225 220 216 214 212 212 211 208 207 206 204 216 312 327 337 338 332 322 302 298 313 315 318 321 324 322 320 317 316 316 319 321 322 317 315 312 310 310
245 241 236 232 228 224 220 218 216 215 212 207 199 195 185 163 14 340 329 335 320 312 301 304 310 314 316 320 321 317 319 322 318 317 317 318 318 318 315 310 313 314 314
247 242 237 232 227 224 222 218 213 206 204 195 187 179 271 309 323 323 328 324 295 286 291 302 309 315 322 325 330 331 327 324 323 323 320 318 317 315 319 321 316 314 310
247 241 237 232 227 223 218 210 206 199 195 196 220 240 316 329 321 319 283 276 282 289 298 311 322 328 333 333 330 327 322 322 323 320 319 317 319 322 320 318 314 310 311
241 238 232 227 219 211 206 199 193 200 209 204 206 264 291 313 286 267 270 275 287 303 319 329 333 333 333 331 328 326 325 324 323 322 321 321 320 320 320 320 323 318 316
239 232 226 220 213 205 199 201 208 216 220 246 281 286 281 255 260 266 277 293 309 323 330 330 330 328 330 330 328 328 327 325 324 323 324 323 323 321 320 319 318 325 324
235 229 221 214 206 202 204 209 212 208 236 266 268 255 259 264 269 279 286 299 323 328 328 327 328 331 333 331 327 325 327 328 329 327 326 324 323 321 322 325 321 323 326
232 226 218 210 206 207 213 209 241 260 259 240 245 254 254 256 261 267 283 306 320 325 329 330 326 326 329 329 332 335 334 333 333 332 329 328 328 328 331 334 329 326 325
231 222 215 210 208 215 224 248 253 238 235 243 245 246 245 248 255 269 288 304 317 324 326 325 329 331 332 333 334 337 336 334 336 334 332 332 332 333 333 336 338 336 334
229 222 214 213 219 230 240 240 224 229 244 250 249 248 247 252 258 269 284 302 319 324 325 329 330 330 332 334 334 334 335 337 338 337 335 334 332 333 336 338 340 342 338
223 219 220 222 230 239 234 226 238 246 248 249 251 251 257 258 261 271 286 301 308 318 324 327 326 328 328 327 328 330 333 334 335 336 336 338 340 342 342 343 345 344 342
223 223 226 231 235 234 226 239 248 247 248 247 248 249 255 255 258 261 274 289 302 315 319 319 320 320 322 324 327 328 327 326 326 328 332 335 339 341 344 346 346 347 346
227 229 234 239 236 229 230 240 245 248 248 247 247 248 250 253 256 262 272 284 299 307 307 308 315 319 319 318 318 320 323 322 324 329 332 335 336 337 340 343 345 347 349
233 234 239 235 229 226 237 245 249 248 248 248 248 247 249 252 257 264 273 284 294 296 301 308 309 309 308 309 312 315 319 322 323 326 330 334 337 338 340 343 345 345 345
236 238 234 228 229 232 245 252 250 249 248 246 245 246 247 248 252 259 268 277 284 291 297 300 301 302 302 304 306 309 313 315 315 317 319 324 330 333 336 341 343 344 346
241 237 233 234 237 237 241 247 247 248 248 247 247 248 251 251 252 258 266 274 283 290 292 295 296 295 296 301 303 305 307 309 309 310 311 314 317 320 325 331 336 338 342
243 238 234 234 235 240 243 247 247 246 245 245 246 247 250 251 254 259 264 269 274 280 284 287 289 290 290 293 296 299 301 303 304 305 305 306 309 313 315 318 323 328 332
240 238 236 237 237 243 244 244 244 246 246 246 246 248 249 251 255 260 264 267 271 274 277 281 285 288 292 295 296 295 295 296 298 299 299 300 303 306 309 309 313 318 322
243 240 236 241 240 240 240 241 245 247 247 247 247 248 249 252 256 259 263 268 271 274 277 279 282 286 290 292 293 292 293 294 294 294 294 295 297 299 301 302 304 308 313